Location: Trebic
(49.2170°N, 15.8830°E)
Time: 21:48:26
(UTC+02:00)

Transit 4A - Pass Details

Date: 29 July 2019
Orbit: 863 x 981 km, 66.8° (Epoch: 24 August)

Event Time Altitude Azimuth Distance (km) Brightness Sun altitude
Rises 04:27:12 0° 290° (WNW) 3,688 10.7 -8.3°
Reaches altitude 10° 04:30:51 10° 311° (NW) 2,740 10.3 -7.8°
Maximum altitude 04:34:52 17° 350° (N) 2,271 10.3 -7.3°
Drops below altitude 10° 04:38:51 10° 29° (NNE) 2,721 11.7 -6.8°
Sets 04:42:29 0° 49° (NE) 3,651 13.8 -6.4°
